FENGYUN 1C DEB

Satellite information

Favourite Embed

Satellite Type and Status

DEBRISIN ORBIT

Key statistics

Satellite FENGYUN 1C DEB at a glance.

Uptime

9616

Days in orbit

Revolutions

≈ 14.2

Per day

Orbit

SSO

Sun Synchronous Orbit

Inclination

98.6

Latest

Satellite identification and parameters

Extended collection of information and parameters for FENGYUN 1C DEB.

Object identification

Identified? True

Debris? True

Object name: FENGYUN 1C DEB

International designator: 1999-025DLT

Object number (NORAD): 35139

Object ID (CCSDS): 35139

Country: PEOPLES REPUBLIC OF CHINA (PRC)

Current information (Y/N): Y

RCS size: SMALL

Orbital parameters

Period: 101.348 minutes

Inclination: 98.5861 deg

SMA: 7200.636 km

Apoapsis: 871.443 km

Periapsis: 773.56 km

RAAN: 250.4632 deg

Eccentricy: 0.00679683

Argument of periapsis: 239.1109 deg

Mean anomaly: 120.3373 deg

Mean motion: 14.20844162 rev/day

Mean motion (dot): 0.00000893 rev/day2

B* drag term: 0.00042301933 1/REarth

Two-line elements (TLE)

Creation date: Aug. 31, 2025, 2:26 a.m.

Reference frame: TEME

Reference center: EARTH

Epoch: Aug. 30, 2025, 7:19 a.m. UTC

TLE line 0: 0 FENGYUN 1C DEB

TLE line 1: 1 35139U 99025DLT 25242.30496416 .00000893 00000-0 42302-3 0 9998

TLE line 2: 2 35139 98.5861 250.4632 0067968 239.1109 120.3373 14.20844162626705

Live tracking on map

Real-time ground track for satellite FENGYUN 1C DEB.

In-orbit conjunctions

A list of the most updated potential collisions computed for object FENGYUN 1C DEB.

Target Orbit TCA Probability of collision Miss distance Type
COSMOS 2112 LEO 2025-05-27 04:23:36 0.0001408098 715.0 (m) PAYLOAD
DELTA 1 DEB SSO 2025-05-24 08:40:14 0.0001104509 605.0 (m) DEBRIS
CZ-6A DEB LEO 2024-10-15 18:24:19 0.0003507877 619.0 (m) DEBRIS
COSMOS 1275 DEB LEO 2024-09-27 17:23:26 0.002184685 5.0 (m) DEBRIS

Associated space launch

Chinese polar orbiting meteorological satellite

FENGYUN 1C DEB was lifted into orbit during the mission ‘Long March 4B | Feng Yun 1C’, on board a Long March 4B space rocket.

The launch took place on May 10, 1999, 1:33 a.m. from Launch Complex 7.

For more information about the launch, click the button.

Launch to space Long March 4B | Feng Yun 1C
Long March 4B | Feng Yun 1C

Agency: N/A

Status: Launch Successful

Launch date: May 10, 1999, 1:33 a.m. UTC

Rocket: Long March 4B

Launch pad: Launch Complex 7

Location: Taiyuan Satellite Launch Center, People's Republic of China

...

Latest news about this satellite

There are no fresh news available about this satellite. Check back as we update our databases every day.


Newsletter sign-up

Weekly statistics, charts and insights to help you stay on top of the space industry.